[[{"header":{"parameterUnit":"m.s-1","parameterCategory":2,"la1":30.2991,"la2":30.254,"lo1":-89.0895,"lo2":-89.0444,"dx":0.0017,"dy":0.0017,"nx":28,"ny":28,"refTime":"2022-11-26T09:00:00:Z","depth":"0","parameterNumber":2,"parameterNumberName":"U-component_of_CURRENTS"},"data":[0,0,0,0,0,0,0,0,0,0,0,0,0,0,0,0,0,0,0,0,0,0,0,0,0,0,0,0,0,0,0,0,0,0,0,0,0,0,0,0,0,0,0,0,0,0,0,0,0,0,0,0,0,0,0,0,0,0,0.2663,0.2663,0,0.266,0.266,0.266,0.2635,0.2634,0.2633,0.2633,0.2617,0.2617,0.2617,0,0,0,0,0,0,0,0,0,0,0,0,0,0.277,0.2767,0.2663,0.2663,0.2664,0.266,0.266,0.266,0.2635,0.2634,0.2633,0.2633,0.2617,0.2617,0.2617,0,0,0,0,0,0,0,0,0,0,0,0,0,0.2739,0.2766,0.2663,0.2652,0.2651,0.266,0.266,0.266,0.2635,0.2634,0.2633,0.2633,0.2617,0.2617,0.2617,0.2633,0,0,0.2618,0.2618,0,0,0,0,0,0,0,0,0.2741,0.2735,0.2653,0.2652,0.2651,0.2648,0.2692,0.2651,0.2635,0.2639,0.2633,0.2632,0.2628,0.2627,0.2626,0.2632,0.2631,0.2618,0.2618,0.2618,0.2618,0,0,0,0,0,0,0,0.2743,0.2736,0.2661,0.2653,0.2652,0.2689,0.2682,0.2684,0.2637,0.2639,0.2637,0.2639,0.2627,0.2626,0.2626,0.2631,0.2618,0.2618,0.2618,0.2618,0.269,0.2692,0,0,0,0,0,0,0.274,0.2737,0.2661,0.2661,0.2697,0.2687,0.268,0.2649,0.2637,0.2635,0.264,0.2638,0.2627,0.2626,0.2625,0.2688,0.2618,0.2618,0.2618,0.2688,0.269,0.2692,0,0,0,0,0,0,0.2742,0.2732,0.2661,0.2703,0.2696,0.2685,0.2651,0.2649,0.2651,0.2638,0.2635,0.2645,0.2626,0.2625,0.2635,0.2685,0.2618,0.2618,0.2686,0.2689,0.2691,0.2784,0,0,0,0,0,0,0.2744,0.2732,0.2713,0.2701,0.2693,0.2665,0.2652,0.265,0.2654,0.2652,0.2642,0.2639,0.2625,0.2635,0.2635,0.2684,0.2618,0.2683,0.2687,0.269,0.2779,0.279,0.2799,0,0,0,0,0,0.2747,0.2718,0.2711,0.2703,0.2665,0.2665,0.2665,0.2655,0.2655,0.2655,0.2656,0.2639,0.2658,0.2637,0.2636,0.2686,0.2682,0.2686,0.269,0.2774,0.2788,0.2799,0,0,0,0,0,0,0.2757,0.2713,0.2705,0.2663,0.2667,0.2661,0.2659,0.2663,0.2665,0.2663,0.2654,0.2652,0.2684,0.2669,0.2645,0.2718,0.2672,0.2676,0.2736,0.2748,0.2759,0.2752,0.2618,0,0,0,0,0,0.2751,0.2712,0.2698,0.267,0.2669,0.267,0.2672,0.2669,0.267,0.2669,0.2664,0.2672,0.2702,0.2709,0.2715,0.2748,0.277,0.2783,0.2794,0.2802,0.2797,0.2897,0.2916,0.2706,0.2706,0.2706,0,0,0.2748,0.2721,0.2699,0.267,0.2669,0.2682,0.2668,0.2669,0.2695,0.2669,0.2691,0.2701,0.2718,0.2759,0.2773,0.2751,0.2875,0.2808,0.2815,0.2805,0.2903,0.2924,0.2943,0.2709,0.2708,0.2708,0,0,0.2741,0.27,0.2679,0.2682,0.2681,0.2688,0.2693,0.2691,0.2703,0.2732,0.2735,0.2768,0.279,0.2819,0.2842,0.2911,0.2925,0.2922,0.2972,0.307,0.3088,0.3105,0.3167,0.3189,0.293,0.293,0.293,0,0.2753,0.2711,0.2681,0.2681,0.2693,0.2695,0.2711,0.2731,0.2738,0.2766,0.2746,0.2834,0.2827,0.2925,0.2939,0.2937,0.2983,0.2926,0.3086,0.3102,0.3117,0.3177,0.32,0.2935,0.2935,0.2934,0.2934,0,0.2739,0.2721,0.2715,0.2711,0.2724,0.2732,0.2759,0.2782,0.2804,0.2832,0.2915,0.2927,0.2982,0.3,0.2984,0.3101,0.3097,0.3089,0.3056,0.3144,0.3202,0.3223,0.2942,0.294,0.2939,0.2938,0,0,0.2745,0.2709,0.2717,0.2727,0.2739,0.2757,0.2806,0.2862,0.2923,0.2951,0.3042,0.309,0.3104,0.3128,0.314,0.3207,0.334,0.3189,0.3192,0.3254,0.3552,0.3449,0.3462,0.3377,0.3381,0.3384,0.3552,0,0.2759,0.2755,0.2741,0.2779,0.2787,0.2814,0.2868,0.2925,0.2979,0.3061,0.3122,0.3203,0.316,0.3206,0.327,0.332,0.34,0.3294,0.3452,0.3456,0.3358,0.3485,0.3238,0.3358,0.3572,0.3576,0.3579,0,0.2763,0.2762,0.2777,0.2816,0.2827,0.2861,0.2961,0.301,0.3124,0.3171,0.3266,0.3313,0.3417,0.3371,0.3527,0.3469,0.3512,0.3547,0.3555,0.3436,0.3393,0.3303,0.3389,0.3304,0.3611,0.3609,0.3606,0,0.2787,0.2801,0.2813,0.2822,0.2863,0.2902,0.2946,0.3046,0.3113,0.3254,0.3328,0.3454,0.3527,0.3621,0.3661,0.3624,0.3827,0.3792,0.375,0.3743,0.3546,0.3514,0.3564,0.3925,0.3924,0.3924,0.3923,0,0.2801,0.2825,0.2825,0.2838,0.2896,0.2924,0.3016,0.3083,0.3199,0.3297,0.3387,0.3496,0.3595,0.3707,0.3739,0.3806,0.3904,0.3781,0.3795,0.357,0.3539,0.3462,0.3432,0.393,0.3929,0.3928,0.3927,0,0.2822,0.2812,0.284,0.2881,0.2897,0.2948,0.3036,0.3115,0.3217,0.3355,0.3411,0.3562,0.3703,0.3791,0.3939,0.3895,0.3852,0.3978,0.3682,0.3656,0.3487,0.3469,0.3402,0.3302,0.3964,0.3962,0.3961,0,0.2821,0.2829,0.2866,0.2893,0.2909,0.2974,0.3025,0.3117,0.3194,0.3392,0.3463,0.3641,0.374,0.39,0.3868,0.393,0.3841,0.373,0.3598,0.3465,0.346,0.3331,0.3243,0.3388,0.3382,0.3377,0.3373,0,0.2851,0.2862,0.2891,0.292,0.2965,0.3005,0.3077,0.3132,0.3256,0.3358,0.3493,0.3591,0.3712,0.3644,0.3698,0.3694,0.3499,0.3634,0.3592,0.3091,0.2862,0.2773,0.3282,0.3332,0.3336,0.3339,0.3341,0.3343,0.2889,0.2908,0.2932,0.2959,0.2997,0.3016,0.3022,0.3099,0.3177,0.3275,0.3417,0.347,0.3442,0.3462,0.3432,0.3188,0.3253,0.3054,0.3073,0.2979,0.2774,0.3173,0.3174,0.3177,0.318,0.3182,0.3185,0,0.2922,0.2934,0.2966,0.2972,0.2977,0.2996,0.3036,0.3012,0.3038,0.3152,0.3211,0.3143,0.3053,0.3006,0.2773,0.2631,0.2485,0.2574,0.2341,0.2308,0.2746,0.261,0.2371,0.2371,0.2371,0.2371,0.2371,0.2371,0.295,0.2968,0.2956,0.2936,0.2928,0.2865,0.2855,0.2831,0.286,0.2801,0.2738,0.2757,0.2721,0.2559,0.2328,0.2259,0.2096,0.1952,0.2061,0.2368,0.2414,0.2457,0.2323,0.2028,0.2027,0.1434,0.143,0.1427]},{"header":{"parameterUnit":"m.s-1","parameterCategory":2,"la1":30.2991,"la2":30.254,"lo1":-89.0895,"lo2":-89.0444,"dx":0.0017,"dy":0.0017,"nx":28,"ny":28,"refTime":"2022-11-26T09:00:00:Z","depth":"0","parameterNumber":3,"parameterNumberName":"V-component_of_CURRENTS"},"data":[0,0,0,0,0,0,0,0,0,0,0,0,0,0,0,0,0,0,0,0,0,0,0,0,0,0,0,0,0,0,0,0,0,0,0,0,0,0,0,0,0,0,0,0,0,0,0,0,0,0,0,0,0,0,0,0,0,0,0.0172,0.0171,0,0.0146,0.0146,0.0145,0.0124,0.0124,0.0124,0.0124,0.0091,0.009,0.009,0,0,0,0,0,0,0,0,0,0,0,0,0,0.0189,0.0188,0.0172,0.0171,0.0171,0.0146,0.0146,0.0145,0.0124,0.0124,0.0124,0.0123,0.0091,0.009,0.009,0,0,0,0,0,0,0,0,0,0,0,0,0,0.0174,0.0188,0.0172,0.0158,0.0156,0.0146,0.0146,0.0145,0.0124,0.0124,0.0124,0.0123,0.0091,0.009,0.0089,0.009,0,0,0.0086,0.0086,0,0,0,0,0,0,0,0,0.0175,0.0173,0.016,0.0159,0.0157,0.0138,0.014,0.0126,0.0124,0.0136,0.0124,0.0123,0.0106,0.0104,0.01,0.0088,0.0087,0.0086,0.0086,0.0085,0.0085,0,0,0,0,0,0,0,0.0176,0.0174,0.0161,0.016,0.0158,0.0148,0.0146,0.0137,0.0123,0.0135,0.0134,0.0131,0.0105,0.0101,0.0099,0.0086,0.0086,0.0085,0.0085,0.0084,0.0077,0.0078,0,0,0,0,0,0,0.018,0.0175,0.0162,0.016,0.0165,0.0148,0.0145,0.0144,0.0123,0.012,0.0131,0.013,0.0103,0.01,0.0098,0.0116,0.0085,0.0084,0.0084,0.0077,0.0077,0.0078,0,0,0,0,0,0,0.0181,0.018,0.0163,0.0167,0.0165,0.0148,0.0147,0.0144,0.0142,0.0121,0.0117,0.0133,0.0102,0.0099,0.0095,0.0114,0.0084,0.0083,0.0076,0.0077,0.0077,0.014,0,0,0,0,0,0,0.0182,0.018,0.0182,0.0168,0.0164,0.0166,0.0147,0.0144,0.0141,0.0139,0.012,0.0117,0.0102,0.0096,0.0094,0.0112,0.0082,0.0076,0.0077,0.0077,0.0138,0.0143,0.0148,0,0,0,0,0,0.0182,0.019,0.0183,0.0181,0.0168,0.0166,0.0164,0.0151,0.0141,0.0147,0.0131,0.0118,0.0099,0.0096,0.0093,0.0111,0.0075,0.0076,0.0077,0.0136,0.0142,0.0147,0,0,0,0,0,0,0.02,0.0188,0.018,0.0184,0.0179,0.0163,0.0165,0.0156,0.0147,0.0144,0.0123,0.0119,0.0122,0.0105,0.0102,0.011,0.0085,0.0086,0.0131,0.0136,0.0141,0.0163,0.0081,0,0,0,0,0,0.0205,0.0206,0.0195,0.0198,0.0197,0.0181,0.0179,0.017,0.0159,0.0155,0.0142,0.0128,0.0123,0.012,0.011,0.0115,0.012,0.0124,0.0129,0.0133,0.0147,0.0163,0.0172,0.0081,0.0081,0.0081,0,0,0.0211,0.0206,0.0206,0.0202,0.0194,0.0205,0.0179,0.0179,0.0194,0.0153,0.0167,0.0144,0.0127,0.0134,0.0134,0.0123,0.0164,0.0134,0.0138,0.015,0.0165,0.0174,0.0182,0.0081,0.0081,0.0081,0,0,0.0231,0.0222,0.0232,0.0232,0.0226,0.022,0.0223,0.0212,0.0214,0.022,0.0196,0.0187,0.0177,0.0171,0.0167,0.0192,0.0188,0.0185,0.0231,0.0246,0.0254,0.0261,0.0296,0.0306,0.0189,0.0189,0.0189,0,0.024,0.0253,0.0235,0.0248,0.0258,0.0232,0.0255,0.0255,0.0244,0.0257,0.0233,0.0231,0.02,0.0228,0.0224,0.0206,0.022,0.0212,0.0255,0.0262,0.0268,0.0302,0.0311,0.0192,0.0192,0.0191,0.0191,0,0.027,0.0281,0.0289,0.03,0.0308,0.0321,0.0321,0.0331,0.0325,0.0324,0.0346,0.0311,0.0318,0.0296,0.0262,0.0294,0.0292,0.026,0.0245,0.0282,0.0314,0.0323,0.0197,0.0195,0.0195,0.0194,0,0,0.0296,0.0308,0.0314,0.034,0.034,0.0361,0.0384,0.0411,0.0452,0.0429,0.0495,0.0442,0.0426,0.042,0.0385,0.0376,0.0414,0.0335,0.0334,0.038,0.0471,0.0417,0.0421,0.0391,0.0393,0.0394,0.0483,0,0.0329,0.0377,0.0369,0.0425,0.0456,0.0449,0.0487,0.0506,0.0515,0.0571,0.0544,0.0583,0.0478,0.0499,0.0471,0.0428,0.0439,0.0395,0.042,0.0421,0.0377,0.043,0.0405,0.0476,0.0491,0.0493,0.0494,0,0.037,0.04,0.0461,0.0517,0.0532,0.0564,0.0637,0.0665,0.0711,0.0726,0.0742,0.0734,0.073,0.065,0.0601,0.0579,0.0536,0.0495,0.0497,0.0432,0.0383,0.0437,0.0492,0.0386,0.0508,0.0507,0.0506,0,0.0428,0.0473,0.0533,0.0548,0.0598,0.0641,0.0676,0.0717,0.0779,0.0846,0.0914,0.0885,0.0918,0.084,0.0723,0.0679,0.0686,0.0622,0.0548,0.0545,0.0521,0.0512,0.0483,0.0625,0.0625,0.0625,0.0625,0,0.0481,0.0532,0.0572,0.0611,0.0709,0.0716,0.0824,0.0854,0.0938,0.1045,0.1011,0.1109,0.0964,0.0945,0.0814,0.071,0.0762,0.0579,0.0566,0.0541,0.0533,0.0434,0.0355,0.0628,0.0627,0.0627,0.0626,0,0.0544,0.0558,0.0639,0.0708,0.0741,0.0819,0.0931,0.1013,0.107,0.1225,0.1271,0.1295,0.1256,0.1111,0.1004,0.0846,0.0668,0.0705,0.0688,0.0669,0.045,0.0375,0.0329,0.0259,0.0637,0.0636,0.0636,0,0.058,0.0627,0.0725,0.0788,0.0826,0.0933,0.1018,0.1085,0.1182,0.135,0.1451,0.1475,0.1524,0.1335,0.1058,0.0856,0.0704,0.0679,0.0565,0.0454,0.0363,0.0308,0.0249,0.0578,0.0576,0.0576,0.0575,0,0.0664,0.0698,0.077,0.0889,0.0987,0.1096,0.1221,0.1316,0.1425,0.1562,0.1729,0.1795,0.1638,0.1405,0.1094,0.0929,0.0565,0.0652,0.055,0.0326,0.0256,0.0177,0.0516,0.0567,0.0568,0.0568,0.0569,0.0569,0.0738,0.0802,0.0891,0.1,0.111,0.1235,0.1327,0.1471,0.164,0.1835,0.1904,0.2025,0.1686,0.1258,0.1029,0.0544,0.0542,0.0375,0.0306,0.0273,0.0156,0.0475,0.0484,0.0484,0.0484,0.0485,0.0485,0,0.082,0.0883,0.0993,0.1115,0.1223,0.1267,0.1445,0.1533,0.1722,0.1939,0.2078,0.1981,0.1603,0.1181,0.0524,0.0244,0.014,0.0088,0.0017,-0.0022,0.029,0.0234,0.0172,0.0172,0.0172,0.0172,0.0172,0.0172,0.0871,0.097,0.1006,0.1169,0.1257,0.1384,0.1472,0.1629,0.1789,0.1974,0.205,0.2091,0.1744,0.0744,0.0104,-0.004,-0.0227,-0.0277,-0.0357,-0.0143,-0.0121,-0.01,-0.0169,-0.0315,-0.0316,-0.0642,-0.0645,-0.0647]}],[{"header":{"parameterUnit":"m.s-1","parameterCategory":2,"la1":30.2991,"la2":30.254,"lo1":-89.0895,"lo2":-89.0444,"dx":0.0017,"dy":0.0017,"nx":28,"ny":28,"refTime":"2022-11-26T09:00:00:Z","depth":"2","parameterNumber":2,"parameterNumberName":"U-component_of_CURRENTS"},"data":[0,0,0,0,0,0,0,0,0,0,0,0,0,0,0,0,0,0,0,0,0,0,0,0,0,0,0,0,0,0,0,0,0,0,0,0,0,0,0,0,0,0,0,0,0,0,0,0,0,0,0,0,0,0,0,0,0,0,0.2437,0.2437,0,0.2447,0.2446,0.2446,0.2434,0.2434,0.2433,0.2433,0.2422,0.2422,0.2421,0,0,0,0,0,0,0,0,0,0,0,0,0,0.241,0.241,0.2437,0.2437,0.2437,0.2447,0.2446,0.2446,0.2434,0.2434,0.2433,0.2433,0.2422,0.2422,0.2421,0,0,0,0,0,0,0,0,0,0,0,0,0,0.2418,0.241,0.2436,0.2434,0.2434,0.2447,0.2446,0.2446,0.2434,0.2434,0.2433,0.2433,0.2422,0.2422,0.2421,0.2426,0,0,0.2421,0.2421,0,0,0,0,0,0,0,0,0.2417,0.2418,0.2434,0.2435,0.2435,0.2441,0.2433,0.2439,0.2434,0.2431,0.2433,0.2433,0.2428,0.2428,0.2426,0.2426,0.2425,0.2421,0.2421,0.2421,0.2421,0,0,0,0,0,0,0,0.2417,0.2418,0.2438,0.2435,0.2435,0.2434,0.2435,0.2434,0.2428,0.2431,0.2431,0.2437,0.2428,0.2426,0.2426,0.2425,0.2421,0.2421,0.2421,0.242,0.2463,0.2464,0,0,0,0,0,0,0.2422,0.2418,0.2437,0.2438,0.2428,0.2435,0.2435,0.2437,0.2429,0.2428,0.2437,0.2436,0.2427,0.2426,0.2425,0.2461,0.2421,0.242,0.242,0.2461,0.2463,0.2464,0,0,0,0,0,0,0.2421,0.2423,0.2437,0.2431,0.2433,0.2436,0.2438,0.2437,0.2446,0.2434,0.2433,0.2447,0.2427,0.2426,0.2435,0.2459,0.242,0.242,0.246,0.2462,0.2463,0.2513,0,0,0,0,0,0,0.242,0.2423,0.2429,0.2431,0.2433,0.2445,0.2438,0.2438,0.2451,0.245,0.2442,0.244,0.2426,0.2436,0.2435,0.2458,0.242,0.2458,0.2461,0.2463,0.251,0.2516,0.2522,0,0,0,0,0,0.2419,0.2425,0.2429,0.2432,0.2441,0.2446,0.2447,0.2446,0.2452,0.2453,0.2455,0.2441,0.245,0.2436,0.2435,0.2459,0.2457,0.246,0.2463,0.2507,0.2515,0.2522,0,0,0,0,0,0,0.2411,0.2425,0.2429,0.2438,0.2444,0.2445,0.2452,0.2456,0.246,0.2463,0.2452,0.245,0.247,0.2459,0.2444,0.248,0.2453,0.2456,0.2488,0.2495,0.2501,0.2508,0.242,0,0,0,0,0,0.2416,0.2427,0.2435,0.2443,0.2449,0.2455,0.2461,0.2463,0.2466,0.2468,0.2464,0.2468,0.248,0.2482,0.2483,0.25,0.2519,0.2517,0.2523,0.2528,0.2534,0.2598,0.261,0.2473,0.2473,0.2473,0,0,0.2415,0.2426,0.2431,0.2444,0.2449,0.2463,0.2457,0.2469,0.2483,0.2467,0.2483,0.2487,0.2489,0.2508,0.2517,0.2502,0.2578,0.2531,0.2536,0.2539,0.2602,0.2616,0.2628,0.2475,0.2475,0.2474,0,0,0.2419,0.2429,0.2441,0.2451,0.2469,0.2474,0.2482,0.249,0.2496,0.2516,0.2514,0.2536,0.2542,0.2551,0.2559,0.2601,0.2608,0.2602,0.2637,0.2699,0.2711,0.2722,0.2766,0.278,0.2604,0.2604,0.2604,0,0.2419,0.2434,0.2444,0.246,0.2472,0.2483,0.2497,0.2509,0.2519,0.2536,0.2528,0.2574,0.2568,0.2611,0.2621,0.2616,0.2647,0.2608,0.2708,0.2719,0.2729,0.2772,0.2787,0.2607,0.2607,0.2606,0.2606,0,0.2431,0.2448,0.2456,0.2483,0.2495,0.2509,0.2528,0.2546,0.2563,0.2581,0.2626,0.263,0.2664,0.2665,0.2654,0.2722,0.272,0.271,0.269,0.2746,0.2787,0.2802,0.2611,0.261,0.2609,0.2608,0,0,0.2413,0.2457,0.2459,0.2472,0.2509,0.2513,0.2553,0.2586,0.2623,0.2646,0.27,0.2721,0.2741,0.275,0.2749,0.2788,0.288,0.278,0.2782,0.2825,0.3017,0.2919,0.2925,0.2895,0.2897,0.29,0.3017,0,0.2419,0.2448,0.2472,0.2497,0.2511,0.2542,0.2579,0.2616,0.2654,0.2709,0.2744,0.2794,0.2771,0.2799,0.284,0.2878,0.2922,0.2849,0.2954,0.2957,0.2865,0.294,0.2679,0.2753,0.3031,0.3034,0.3036,0,0.2417,0.2439,0.2465,0.2506,0.2516,0.2539,0.2599,0.2635,0.2723,0.2763,0.2832,0.2867,0.2943,0.291,0.3021,0.2981,0.3005,0.3021,0.3027,0.2928,0.2887,0.2742,0.2769,0.306,0.3058,0.3057,0.3055,0,0.2383,0.2427,0.2445,0.2459,0.2515,0.2538,0.2574,0.2653,0.2704,0.281,0.2872,0.2962,0.3026,0.3083,0.3123,0.3093,0.3233,0.32,0.3132,0.3126,0.2918,0.2887,0.3277,0.3277,0.3277,0.3276,0.3276,0,0.237,0.2382,0.2431,0.2439,0.2472,0.252,0.2579,0.2633,0.2744,0.2814,0.2902,0.298,0.3075,0.3158,0.3176,0.3209,0.3291,0.3156,0.3158,0.2925,0.2896,0.3166,0.3151,0.3281,0.328,0.3279,0.3278,0,0.233,0.2362,0.2386,0.2442,0.2456,0.2482,0.2575,0.2629,0.2738,0.2838,0.2884,0.3036,0.3142,0.3208,0.3311,0.3273,0.3311,0.3292,0.3003,0.2967,0.3148,0.3135,0.3245,0.3243,0.3241,0.3239,0.3238,0,0.2311,0.2322,0.2374,0.2391,0.2416,0.2467,0.2509,0.2615,0.2677,0.2858,0.2903,0.3054,0.3112,0.3233,0.3216,0.3239,0.3298,0.2989,0.287,0.3159,0.315,0.3139,0.3129,0.2622,0.2616,0.2611,0.2607,0,0.2282,0.2308,0.2327,0.2366,0.2398,0.2431,0.2495,0.2536,0.2666,0.2741,0.2842,0.2908,0.3028,0.2937,0.2976,0.295,0.2964,0.2883,0.3294,0.2658,0.2577,0.2566,0.2576,0.2561,0.2565,0.2569,0.2571,0.2573,0.2262,0.2271,0.2304,0.2329,0.2366,0.2375,0.2364,0.2432,0.2482,0.2539,0.2676,0.268,0.2717,0.2649,0.2572,0.2526,0.2733,0.2589,0.2603,0.2623,0.2517,0.2435,0.2373,0.2376,0.2379,0.2382,0.2384,0,0.2235,0.2247,0.2266,0.2268,0.2264,0.2319,0.2336,0.2287,0.2273,0.2348,0.2374,0.2181,0.2135,0.2196,0.2053,0.2039,0.2001,0.1946,0.187,0.1919,0.1961,0.1819,0.1491,0.1488,0.1486,0.1483,0,0,0.2223,0.2217,0.2214,0.2166,0.217,0.2108,0.2094,0.2015,0.2014,0.1934,0.1915,0.2053,0.2141,0.1793,0.1734,0.1592,0.174,0.1523,0.2245,0.2207,0.2245,0.2345,0.2183,0,0,0,0,0]},{"header":{"parameterUnit":"m.s-1","parameterCategory":2,"la1":30.2991,"la2":30.254,"lo1":-89.0895,"lo2":-89.0444,"dx":0.0017,"dy":0.0017,"nx":28,"ny":28,"refTime":"2022-11-26T09:00:00:Z","depth":"2","parameterNumber":3,"parameterNumberName":"V-component_of_CURRENTS"},"data":[0,0,0,0,0,0,0,0,0,0,0,0,0,0,0,0,0,0,0,0,0,0,0,0,0,0,0,0,0,0,0,0,0,0,0,0,0,0,0,0,0,0,0,0,0,0,0,0,0,0,0,0,0,0,0,0,0,0,0.0139,0.0139,0,0.0115,0.0114,0.0114,0.0097,0.0097,0.0097,0.0097,0.0069,0.0068,0.0068,0,0,0,0,0,0,0,0,0,0,0,0,0,0.0147,0.0147,0.0139,0.0139,0.0138,0.0115,0.0114,0.0114,0.0097,0.0097,0.0097,0.0097,0.0069,0.0069,0.0068,0,0,0,0,0,0,0,0,0,0,0,0,0,0.0135,0.0147,0.0139,0.0127,0.0126,0.0115,0.0114,0.0114,0.0097,0.0097,0.0097,0.0097,0.007,0.0069,0.0068,0.0065,0,0,0.0065,0.0064,0,0,0,0,0,0,0,0,0.0136,0.0135,0.0129,0.0128,0.0127,0.0109,0.0107,0.0098,0.0097,0.0108,0.0097,0.0097,0.0082,0.008,0.0076,0.0064,0.0063,0.0065,0.0064,0.0064,0.0063,0,0,0,0,0,0,0,0.0137,0.0136,0.0129,0.0129,0.0127,0.0115,0.0113,0.0105,0.0096,0.0107,0.0106,0.0103,0.0081,0.0077,0.0075,0.0062,0.0065,0.0064,0.0063,0.0063,0.0052,0.0053,0,0,0,0,0,0,0.0141,0.0137,0.013,0.0129,0.0131,0.0115,0.0113,0.0115,0.0096,0.0094,0.0104,0.0103,0.0079,0.0076,0.0074,0.0085,0.0064,0.0063,0.0062,0.0052,0.0052,0.0053,0,0,0,0,0,0,0.0142,0.0141,0.0131,0.0132,0.013,0.0115,0.0117,0.0114,0.0113,0.0094,0.0091,0.0105,0.0078,0.0075,0.0071,0.0083,0.0062,0.0061,0.0052,0.0052,0.0052,0.0096,0,0,0,0,0,0,0.0142,0.0142,0.0145,0.0132,0.013,0.0132,0.0117,0.0114,0.0111,0.011,0.0094,0.0091,0.0078,0.0073,0.007,0.0081,0.0061,0.0051,0.0052,0.0052,0.0095,0.0098,0.0102,0,0,0,0,0,0.0143,0.0151,0.0146,0.0145,0.0135,0.0133,0.0131,0.0119,0.0112,0.0116,0.0103,0.0092,0.0074,0.0072,0.0069,0.008,0.0051,0.0052,0.0052,0.0093,0.0098,0.0101,0,0,0,0,0,0,0.0154,0.015,0.0144,0.015,0.0145,0.013,0.0132,0.0123,0.0116,0.0113,0.0096,0.0092,0.0092,0.0079,0.0077,0.0078,0.0061,0.0061,0.0093,0.0097,0.01,0.0118,0.006,0,0,0,0,0,0.0159,0.0166,0.0157,0.0161,0.016,0.0146,0.0143,0.0136,0.0127,0.0123,0.0112,0.0099,0.0092,0.0089,0.0078,0.0081,0.0064,0.0085,0.0088,0.0091,0.0103,0.0084,0.0087,0.0055,0.0055,0.0055,0,0,0.0162,0.0162,0.0164,0.0164,0.0157,0.0166,0.0144,0.0144,0.0153,0.0121,0.013,0.011,0.0094,0.0095,0.0094,0.0088,0.009,0.0092,0.0095,0.0105,0.0085,0.0088,0.0091,0.0055,0.0055,0.0055,0,0,0.0179,0.0175,0.0188,0.0189,0.0185,0.018,0.0182,0.0172,0.017,0.0173,0.0152,0.0141,0.0131,0.0122,0.0116,0.0133,0.0107,0.0126,0.0162,0.0143,0.0146,0.0148,0.0124,0.0124,0.013,0.013,0.0131,0,0.0183,0.0201,0.019,0.0205,0.0212,0.019,0.0209,0.0205,0.0195,0.0199,0.0183,0.0168,0.0147,0.0154,0.0156,0.0142,0.0124,0.0148,0.0148,0.015,0.0151,0.0127,0.0126,0.0133,0.0132,0.0132,0.0132,0,0.0212,0.0227,0.0234,0.025,0.0255,0.0266,0.0262,0.0265,0.0258,0.0251,0.0253,0.0224,0.0218,0.0204,0.0186,0.0189,0.017,0.0153,0.014,0.0157,0.013,0.0128,0.0136,0.0135,0.0134,0.0134,0,0,0.0224,0.0251,0.0255,0.0275,0.0282,0.0293,0.031,0.0323,0.0342,0.032,0.0344,0.0313,0.0293,0.0285,0.0255,0.0235,0.022,0.0202,0.02,0.0183,0.0174,0.015,0.0145,0.0201,0.0202,0.0202,0.0149,0,0.0251,0.0294,0.0299,0.0342,0.0365,0.036,0.0385,0.0391,0.039,0.0404,0.037,0.0378,0.0326,0.0327,0.0297,0.025,0.0219,0.0236,0.0157,0.0154,0.0134,0.0144,0.0183,0.0139,0.0147,0.0147,0.0147,0,0.0281,0.031,0.0358,0.0402,0.0412,0.0433,0.0472,0.0492,0.0499,0.05,0.0491,0.0465,0.0444,0.0393,0.0316,0.033,0.0256,0.0206,0.0202,0.0166,0.0127,0.0123,0.0136,0.0143,0.0144,0.0144,0.0144,0,0.0305,0.0351,0.0396,0.041,0.0453,0.0477,0.05,0.0519,0.0556,0.0565,0.059,0.0546,0.0544,0.0453,0.0351,0.0334,0.0261,0.0222,0.0125,0.0122,0.0135,0.0133,0.0154,0.0154,0.0154,0.0154,0.0155,0,0.0338,0.0373,0.0412,0.0439,0.05,0.0514,0.058,0.0594,0.0635,0.0695,0.0644,0.068,0.0559,0.0503,0.0386,0.0263,0.0285,0.0137,0.0111,0.015,0.015,0.0138,0.0137,0.0152,0.0153,0.0153,0.0154,0,0.0359,0.0384,0.044,0.0493,0.0515,0.056,0.064,0.0693,0.0718,0.0796,0.0809,0.0787,0.0718,0.0584,0.0446,0.0321,0.0198,0.014,0.0192,0.0172,0.0057,0.0059,0.0024,0.0023,0.0022,0.0021,0.002,0,0.0374,0.0406,0.0479,0.0524,0.0551,0.0621,0.0682,0.0731,0.0797,0.0872,0.092,0.0879,0.0863,0.0649,0.0446,0.0239,0.0196,0.0111,0.0075,0.0068,0.0045,0.0049,0.0052,0.0105,0.0105,0.0105,0.0105,0,0.0406,0.0431,0.0481,0.0572,0.0641,0.0726,0.0812,0.088,0.0958,0.1025,0.11,0.1092,0.0905,0.0722,0.0435,0.0291,0.0147,0.0101,0.0098,0.013,0.014,0.0119,0.012,0.0106,0.0106,0.0106,0.0106,0.0106,0.0432,0.0471,0.0542,0.063,0.0714,0.0824,0.0902,0.1006,0.1125,0.1227,0.1217,0.1207,0.0986,0.0633,0.0396,0.0147,0.0148,0.0039,0.0042,0.0043,0.006,0.0067,0.0023,0.0022,0.0022,0.0021,0.0021,0,0.0472,0.052,0.0598,0.0706,0.08,0.0844,0.0991,0.1073,0.1219,0.1296,0.1343,0.1126,0.0931,0.0676,0.0324,0.0089,0.0078,-0.0,0.0047,0.005,0.0051,0.0069,0.0033,0.0032,0.0031,0.003,0,0,0.0495,0.0573,0.0613,0.0762,0.0841,0.0971,0.1059,0.1176,0.1259,0.1327,0.1327,0.1296,0.1007,0.0738,0.0444,0.0247,0.019,0.0195,0.0214,0.0308,0.0312,0.0107,0.0141,0,0,0,0,0]}],[{"header":{"parameterUnit":"m.s-1","parameterCategory":2,"la1":30.2991,"la2":30.254,"lo1":-89.0895,"lo2":-89.0444,"dx":0.0017,"dy":0.0017,"nx":28,"ny":28,"refTime":"2022-11-26T09:00:00:Z","depth":"4","parameterNumber":2,"parameterNumberName":"U-component_of_CURRENTS"},"data":[0,0,0,0,0,0,0,0,0,0,0,0,0,0,0,0,0,0,0,0,0,0,0,0,0,0,0,0,0,0,0,0,0,0,0,0,0,0,0,0,0,0,0,0,0,0,0,0,0,0,0,0,0,0,0,0,0,0,0.1581,0.1582,0,0.1626,0.1627,0.1627,0.1666,0.1667,0.1667,0.1668,0.171,0.1711,0.1711,0,0,0,0,0,0,0,0,0,0,0,0,0,0.1513,0.1514,0.1581,0.1582,0.1583,0.1626,0.1627,0.1627,0.1666,0.1667,0.1667,0.1668,0.171,0.1711,0.1711,0,0,0,0,0,0,0,0,0,0,0,0,0,0.1546,0.1514,0.1581,0.1609,0.1613,0.1626,0.1627,0.1627,0.1666,0.1667,0.1668,0.1669,0.171,0.1711,0.1711,0.1695,0,0,0.1714,0.1714,0,0,0,0,0,0,0,0,0.1544,0.1548,0.1604,0.1608,0.1611,0.1644,0.1618,0.1651,0.1665,0.1643,0.1668,0.1669,0.1689,0.1691,0.1694,0.1697,0.1699,0.1714,0.1714,0.1714,0.1715,0,0,0,0,0,0,0,0.1542,0.1547,0.1596,0.1605,0.1609,0.1615,0.162,0.1624,0.1657,0.1645,0.1648,0.1657,0.169,0.1693,0.1695,0.17,0.1714,0.1714,0.1715,0.1715,0.1789,0.1791,0,0,0,0,0,0,0.1542,0.1544,0.1595,0.1598,0.1583,0.1615,0.1622,0.163,0.1657,0.1663,0.1656,0.1659,0.1691,0.1694,0.1697,0.1764,0.1714,0.1715,0.1716,0.1788,0.179,0.1791,0,0,0,0,0,0,0.154,0.1546,0.1593,0.1574,0.1581,0.1616,0.1625,0.1631,0.1668,0.1667,0.1672,0.1692,0.1692,0.1696,0.173,0.1763,0.1715,0.1716,0.1786,0.1788,0.179,0.1845,0,0,0,0,0,0,0.1538,0.1545,0.1567,0.1574,0.1582,0.1618,0.1624,0.1631,0.1671,0.1676,0.1698,0.1701,0.1693,0.1729,0.173,0.1763,0.1717,0.1784,0.1787,0.179,0.1841,0.1849,0.1856,0,0,0,0,0,0.1535,0.1554,0.1568,0.1575,0.1607,0.1619,0.1623,0.1649,0.1672,0.1687,0.171,0.1703,0.1748,0.173,0.1732,0.1766,0.1783,0.1786,0.1789,0.1838,0.1848,0.1855,0,0,0,0,0,0,0.1534,0.156,0.1575,0.1602,0.1619,0.1627,0.1652,0.1669,0.1698,0.1717,0.1716,0.1721,0.1763,0.1758,0.1738,0.1797,0.1767,0.1771,0.1803,0.1812,0.1819,0.1816,0.1717,0,0,0,0,0,0.1544,0.157,0.1586,0.1612,0.1624,0.1646,0.1663,0.168,0.17,0.1716,0.1732,0.1754,0.1772,0.1788,0.1797,0.1827,0.183,0.1853,0.186,0.1866,0.1865,0.1906,0.1916,0.1803,0.1803,0.1802,0,0,0.1552,0.1571,0.1587,0.1615,0.1634,0.1653,0.1659,0.1694,0.1718,0.1715,0.1764,0.1778,0.1785,0.1819,0.1839,0.1824,0.1901,0.187,0.1875,0.1871,0.1911,0.1922,0.1931,0.1805,0.1804,0.1804,0,0,0.1565,0.1597,0.1619,0.1638,0.1674,0.1684,0.1702,0.1728,0.1754,0.1795,0.1802,0.1839,0.1867,0.1876,0.1885,0.1937,0.1935,0.195,0.1985,0.2026,0.2035,0.2043,0.2064,0.2074,0.1956,0.1956,0.1956,0,0.1577,0.1602,0.1627,0.165,0.1671,0.1702,0.1723,0.1749,0.1786,0.1809,0.1822,0.1883,0.1892,0.1931,0.1953,0.1953,0.1971,0.1951,0.2035,0.2043,0.205,0.207,0.208,0.1959,0.1959,0.1958,0.1958,0,0.1593,0.1627,0.1642,0.1682,0.1705,0.1732,0.1764,0.1801,0.1842,0.1865,0.1927,0.1944,0.1982,0.1995,0.1992,0.2052,0.2046,0.2037,0.2011,0.2065,0.2082,0.2092,0.1963,0.1962,0.1961,0.1961,0,0,0.1578,0.1642,0.165,0.1672,0.1727,0.1739,0.1794,0.1836,0.1878,0.1929,0.1981,0.2024,0.2048,0.2059,0.2068,0.2102,0.2174,0.21,0.2101,0.2117,0.2261,0.2106,0.2101,0.2188,0.219,0.2192,0.2252,0,0.1584,0.1628,0.1661,0.1703,0.1724,0.1772,0.1813,0.1863,0.1915,0.1973,0.2018,0.2072,0.2069,0.2104,0.214,0.2168,0.2202,0.2158,0.2209,0.221,0.2062,0.2107,0.2198,0.2259,0.2261,0.2262,0.2264,0,0.1579,0.1611,0.1656,0.1712,0.1727,0.1764,0.1836,0.1879,0.1965,0.2011,0.208,0.2118,0.2187,0.2177,0.2257,0.2235,0.2255,0.2269,0.2271,0.211,0.2071,0.2193,0.228,0.2279,0.2278,0.2277,0.2276,0,0.1535,0.16,0.1637,0.1658,0.173,0.177,0.1817,0.1899,0.1943,0.2051,0.2104,0.2179,0.2238,0.2281,0.232,0.2306,0.2395,0.2376,0.225,0.224,0.2338,0.2328,0.2429,0.2428,0.2428,0.2428,0.2428,0,0.1507,0.1538,0.1628,0.1645,0.1694,0.1758,0.1824,0.1883,0.1978,0.2029,0.213,0.2175,0.2274,0.2331,0.2348,0.2324,0.2424,0.2257,0.2245,0.2359,0.2352,0.2344,0.2334,0.243,0.243,0.2429,0.2429,0,0.1446,0.1508,0.1552,0.1642,0.1676,0.1715,0.1822,0.186,0.1972,0.2046,0.2089,0.2205,0.2275,0.2343,0.2414,0.2346,0.2346,0.2313,0.2433,0.2428,0.2157,0.2149,0.2171,0.2166,0.2161,0.2158,0.2155,0,0.1415,0.1437,0.1541,0.157,0.1619,0.1693,0.1736,0.1846,0.1887,0.2036,0.2054,0.2174,0.2235,0.221,0.2292,0.2307,0.2281,0.2258,0.2194,0.2144,0.2132,0.2131,0.2128,0.2148,0.2147,0.2146,0.2145,0,0.1353,0.1409,0.1448,0.1512,0.1565,0.1608,0.1684,0.1697,0.1817,0.1942,0.1968,0.1999,0.207,0.211,0.2142,0.2148,0.2256,0.2213,0.2221,0.2161,0.2118,0.2109,0.2112,0.213,0.2133,0.2134,0.2135,0,0.1314,0.1326,0.1389,0.1428,0.1491,0.1494,0.1546,0.1585,0.1636,0.1794,0.1798,0.1925,0.2043,0.2029,0.2057,0.2051,0.2015,0.1932,0.1954,0.1971,0.1877,0.179,0.1693,0,0,0,0,0,0.1265,0.1263,0.1296,0.132,0.1375,0.1409,0.1492,0.1545,0.1665,0.1633,0.1707,0.1761,0.1795,0.1861,0.1816,0.1973,0.2028,0.191,0.1945,0.2049,0.2066,0.1972,0,0,0,0,0,0,0.1228,0.1259,0.126,0.1221,0.122,0.1257,0.1304,0.1384,0.1373,0.1509,0.1542,0.1646,0.1717,0.1808,0.1783,0.1802,0.1782,0.1993,0.1988,0.204,0.2055,0.2069,0.1978,0,0,0,0,0]},{"header":{"parameterUnit":"m.s-1","parameterCategory":2,"la1":30.2991,"la2":30.254,"lo1":-89.0895,"lo2":-89.0444,"dx":0.0017,"dy":0.0017,"nx":28,"ny":28,"refTime":"2022-11-26T09:00:00:Z","depth":"4","parameterNumber":3,"parameterNumberName":"V-component_of_CURRENTS"},"data":[0,0,0,0,0,0,0,0,0,0,0,0,0,0,0,0,0,0,0,0,0,0,0,0,0,0,0,0,0,0,0,0,0,0,0,0,0,0,0,0,0,0,0,0,0,0,0,0,0,0,0,0,0,0,0,0,0,0,0.0102,0.0102,0,0.0086,0.0086,0.0086,0.0078,0.0078,0.0078,0.0078,0.0062,0.0061,0.0061,0,0,0,0,0,0,0,0,0,0,0,0,0,0.011,0.011,0.0102,0.0102,0.0102,0.0086,0.0086,0.0085,0.0078,0.0078,0.0078,0.0078,0.0062,0.0061,0.0061,0,0,0,0,0,0,0,0,0,0,0,0,0,0.0102,0.011,0.0102,0.0096,0.0095,0.0086,0.0086,0.0085,0.0078,0.0078,0.0078,0.0078,0.0062,0.0061,0.0061,0.0057,0,0,0.0059,0.0058,0,0,0,0,0,0,0,0,0.0103,0.0102,0.0097,0.0096,0.0095,0.0084,0.0083,0.0076,0.0078,0.0085,0.0078,0.0078,0.0069,0.0068,0.0065,0.0056,0.0055,0.0059,0.0058,0.0058,0.0058,0,0,0,0,0,0,0,0.0103,0.0102,0.0096,0.0097,0.0096,0.0088,0.0087,0.0081,0.0077,0.0084,0.0083,0.0081,0.0069,0.0066,0.0064,0.0055,0.0059,0.0058,0.0058,0.0057,0.0052,0.0052,0,0,0,0,0,0,0.0106,0.0103,0.0096,0.0095,0.0099,0.0088,0.0087,0.0088,0.0077,0.0076,0.0081,0.0081,0.0067,0.0065,0.0064,0.0075,0.0058,0.0057,0.0057,0.0051,0.0052,0.0052,0,0,0,0,0,0,0.0106,0.0105,0.0097,0.0098,0.0097,0.0088,0.0089,0.0087,0.0088,0.0075,0.0074,0.0084,0.0067,0.0065,0.0064,0.0074,0.0057,0.0056,0.0051,0.0052,0.0052,0.0087,0,0,0,0,0,0,0.0106,0.0106,0.0109,0.0099,0.0097,0.0098,0.0089,0.0087,0.0086,0.0086,0.0077,0.0075,0.0066,0.0065,0.0063,0.0073,0.0056,0.0051,0.0051,0.0052,0.0085,0.0088,0.0091,0,0,0,0,0,0.0107,0.0112,0.0109,0.0108,0.0101,0.0099,0.0097,0.0091,0.0087,0.0091,0.0083,0.0075,0.0066,0.0065,0.0062,0.0072,0.0051,0.0051,0.0052,0.0084,0.0088,0.0091,0,0,0,0,0,0,0.0115,0.0111,0.0108,0.0111,0.0108,0.0097,0.0099,0.0094,0.0091,0.009,0.0079,0.0077,0.0079,0.0069,0.0068,0.0071,0.0057,0.0057,0.0082,0.0086,0.0088,0.0103,0.0055,0,0,0,0,0,0.0118,0.0123,0.0116,0.0119,0.0118,0.0109,0.0107,0.0103,0.0098,0.0096,0.009,0.0082,0.0078,0.0078,0.0071,0.0074,0.0053,0.0078,0.008,0.0083,0.0093,0.0067,0.0069,0.0054,0.0054,0.0054,0,0,0.0121,0.012,0.0122,0.0121,0.0117,0.0124,0.0108,0.0108,0.0118,0.0095,0.0105,0.0091,0.008,0.0084,0.0084,0.0079,0.0074,0.0084,0.0086,0.0095,0.0068,0.0069,0.0071,0.0054,0.0054,0.0054,0,0,0.0132,0.0129,0.0138,0.014,0.0138,0.0134,0.0137,0.013,0.0132,0.0137,0.0122,0.0116,0.0111,0.0105,0.0102,0.0116,0.0088,0.0111,0.014,0.0115,0.0116,0.0116,0.0081,0.0079,0.0114,0.0114,0.0114,0,0.0136,0.0149,0.014,0.0151,0.0158,0.0143,0.0158,0.0157,0.0152,0.0156,0.0147,0.0137,0.0125,0.013,0.0135,0.0124,0.0099,0.0129,0.0119,0.0119,0.0119,0.0083,0.0079,0.0116,0.0116,0.0116,0.0116,0,0.0156,0.0168,0.0173,0.0186,0.0192,0.02,0.02,0.0205,0.0203,0.0199,0.0202,0.0182,0.0178,0.017,0.0159,0.0157,0.0134,0.0123,0.0111,0.0123,0.0083,0.0079,0.0119,0.0118,0.0117,0.0117,0,0,0.0164,0.0184,0.0188,0.0205,0.0213,0.0222,0.0239,0.0251,0.0265,0.0253,0.0269,0.0254,0.0236,0.0231,0.0209,0.019,0.0163,0.0161,0.0159,0.0128,0.0096,0.0088,0.0082,0.0147,0.0146,0.0146,0.0064,0,0.0185,0.0217,0.0222,0.0257,0.0274,0.0275,0.0297,0.0304,0.0304,0.0312,0.0289,0.0293,0.0262,0.026,0.0234,0.0184,0.0155,0.0186,0.0088,0.0086,0.0079,0.0079,0.0145,0.0061,0.006,0.006,0.0059,0,0.0205,0.0227,0.0265,0.0302,0.031,0.033,0.0362,0.0379,0.0383,0.0383,0.0373,0.035,0.0326,0.0297,0.0215,0.0233,0.0171,0.0126,0.0122,0.0103,0.007,0.0049,0.0051,0.0052,0.0052,0.0053,0.0053,0,0.0221,0.0259,0.0294,0.0306,0.0341,0.0364,0.0385,0.04,0.0427,0.0427,0.0439,0.0396,0.0384,0.0305,0.0212,0.0211,0.0112,0.0097,0.0027,0.0025,0.0041,0.0041,0.0036,0.0036,0.0036,0.0037,0.0037,0,0.0242,0.027,0.0306,0.0327,0.0377,0.0392,0.0443,0.0455,0.0482,0.0519,0.0478,0.0484,0.0386,0.0319,0.0223,0.0113,0.0116,0.0034,0.0008,0.0055,0.0058,0.0037,0.0038,0.0033,0.0034,0.0035,0.0035,0,0.0251,0.0274,0.0318,0.0365,0.0386,0.0422,0.0489,0.0527,0.0542,0.0587,0.0593,0.0549,0.0462,0.0349,0.0217,0.0136,0.0026,-0.0016,0.0038,0.0015,-0.0051,-0.0047,-0.01,-0.0101,-0.0102,-0.0102,-0.0103,0,0.0257,0.028,0.0344,0.038,0.0406,0.0465,0.0514,0.0555,0.0597,0.0626,0.0648,0.0584,0.0538,0.0345,0.0216,0.0029,0.0003,-0.0062,-0.0049,-0.0042,-0.0063,-0.0058,-0.0053,-0.0104,-0.0104,-0.0104,-0.0105,0,0.0269,0.0293,0.0333,0.0407,0.0465,0.0532,0.0601,0.0637,0.069,0.0702,0.0699,0.0609,0.0508,0.0353,0.0207,0.0073,-0.0022,-0.0071,-0.007,-0.0058,-0.0048,-0.0066,-0.0061,-0.0107,-0.0107,-0.0107,-0.0106,0,0.0281,0.0308,0.0366,0.0434,0.0509,0.0583,0.0617,0.0672,0.0716,0.0746,0.0738,0.0634,0.0574,0.0374,0.0239,0.0108,0.0074,0.0027,0.0022,0.0023,0.0083,0.0116,0.0088,0,0,0,0,0,0.0293,0.0331,0.0391,0.0469,0.0543,0.059,0.0673,0.0704,0.0751,0.0759,0.0755,0.0663,0.0478,0.0392,0.026,0.021,0.0039,0.0049,-0.0021,-0.0121,-0.0118,-0.0069,0,0,0,0,0,0,0.0302,0.0359,0.039,0.0489,0.0544,0.0633,0.0689,0.0721,0.0724,0.0745,0.0647,0.0616,0.043,0.0551,0.0252,0.0212,0.0147,-0.0034,-0.0038,-0.0123,-0.012,-0.0118,-0.0066,0,0,0,0,0]}]]